AAR711 RKSI-RCTP

Flight info

Callsign AAR711
Flight time 2h 18m
Altitude 38000
Route BOPTA3H BOPTA Z51 BEDES Y711 MUGUS Y742 SALMI B576 BAKER BAKER1A
Aircraft A388/J-SADE2E3FGHIJ3J4J5M1RWXY/LB1D1

Departure

Time 2026-05-04 14:49
Airport Incheon International Airport (RKSI)

Arrival

Time 2026-05-04 17:08
Airport Taiwan Taoyuan International Airport (RCTP)
Time Latitude Longitude Altitude Speed Heading
2026-05-04 14:18 37.45425 126.45192 37 ft 0 kts 228°
2026-05-04 14:38 37.45425 126.45193 37 ft 0 kts 228°
2026-05-04 14:38 37.45432 126.45203 37 ft 2 kts 229°
2026-05-04 14:38 37.45442 126.45218 37 ft 3 kts 230°
2026-05-04 14:39 37.45454 126.45238 37 ft 3 kts 234°
2026-05-04 14:39 37.45464 126.45260 37 ft 3 kts 243°
2026-05-04 14:39 37.45467 126.45279 37 ft 2 kts 265°
2026-05-04 14:40 37.45454 126.45302 37 ft 2 kts 321°
2026-05-04 14:40 37.45444 126.45308 37 ft 2 kts 333°
2026-05-04 14:40 37.45436 126.45312 37 ft 0 kts 338°
2026-05-04 14:40 37.45438 126.45311 37 ft 1 kts 338°
2026-05-04 14:41 37.45442 126.45309 37 ft 0 kts 337°
2026-05-04 14:43 37.45449 126.45306 37 ft 4 kts 338°
2026-05-04 14:44 37.45486 126.45279 37 ft 8 kts 319°
2026-05-04 14:44 37.45528 126.45209 37 ft 11 kts 289°
2026-05-04 14:44 37.45531 126.45104 37 ft 13 kts 251°
2026-05-04 14:44 37.45493 126.45015 37 ft 12 kts 232°
2026-05-04 14:45 37.45436 126.44920 36 ft 15 kts 233°
2026-05-04 14:45 37.45372 126.44807 37 ft 17 kts 235°
2026-05-04 14:45 37.45301 126.44680 36 ft 18 kts 234°
2026-05-04 14:45 37.45224 126.44544 37 ft 20 kts 234°
2026-05-04 14:46 37.45145 126.44403 35 ft 20 kts 235°
2026-05-04 14:46 37.45064 126.44255 37 ft 21 kts 235°
2026-05-04 14:46 37.44985 126.44116 37 ft 15 kts 234°
2026-05-04 14:46 37.44940 126.44036 37 ft 12 kts 235°
2026-05-04 14:47 37.44875 126.43987 38 ft 11 kts 168°
2026-05-04 14:47 37.44796 126.44034 38 ft 14 kts 144°
2026-05-04 14:47 37.44713 126.44107 38 ft 16 kts 145°
2026-05-04 14:47 37.44619 126.44190 37 ft 17 kts 144°
2026-05-04 14:48 37.44518 126.44278 37 ft 18 kts 143°
2026-05-04 14:48 37.44425 126.44285 36 ft 14 kts 222°
2026-05-04 14:48 37.44371 126.44178 36 ft 14 kts 269°
2026-05-04 14:48 37.44434 126.44088 35 ft 24 kts 326°
2026-05-04 14:49 37.44828 126.43737 37 ft 113 kts 324°
2026-05-04 14:49 37.45651 126.42996 62 ft 170 kts 324°
2026-05-04 14:49 37.46639 126.42108 619 ft 177 kts 324°
2026-05-04 14:49 37.47659 126.41208 1249 ft 180 kts 322°
2026-05-04 14:50 37.48517 126.40100 1932 ft 179 kts 307°
2026-05-04 14:50 37.49279 126.38782 2262 ft 194 kts 303°
2026-05-04 14:50 37.50077 126.37326 2478 ft 213 kts 294°
2026-05-04 14:50 37.50456 126.35476 2977 ft 224 kts 270°
2026-05-04 14:51 37.50446 126.33468 3581 ft 238 kts 271°
2026-05-04 14:51 37.50480 126.31324 4208 ft 250 kts 272°
2026-05-04 14:51 37.50539 126.29125 5055 ft 252 kts 272°
2026-05-04 14:51 37.50599 126.26909 5892 ft 255 kts 273°
2026-05-04 14:52 37.50660 126.24656 6704 ft 259 kts 273°
2026-05-04 14:52 37.50723 126.22373 7488 ft 263 kts 273°
2026-05-04 14:52 37.50521 126.20059 8194 ft 272 kts 252°
2026-05-04 14:52 37.49498 126.18024 8981 ft 282 kts 226°
2026-05-04 14:53 37.47812 126.16696 9697 ft 293 kts 205°
2026-05-04 14:53 37.45864 126.15800 10324 ft 304 kts 202°
2026-05-04 14:53 37.43802 126.14973 10541 ft 328 kts 192°
2026-05-04 14:53 37.41420 126.14973 10745 ft 352 kts 169°
2026-05-04 14:54 37.39126 126.16139 11248 ft 361 kts 146°
2026-05-04 14:54 37.37254 126.18247 11874 ft 363 kts 130°
2026-05-04 14:54 37.35638 126.20657 12478 ft 368 kts 127°
2026-05-04 14:54 37.34023 126.23165 13143 ft 370 kts 127°
2026-05-04 14:55 37.32373 126.25671 13760 ft 375 kts 128°
2026-05-04 14:55 37.30673 126.28175 14408 ft 378 kts 129°
2026-05-04 14:55 37.28938 126.30681 15000 ft 382 kts 129°
2026-05-04 14:55 37.27175 126.33203 15585 ft 385 kts 129°
2026-05-04 14:56 37.25398 126.35737 16164 ft 389 kts 129°
2026-05-04 14:56 37.23600 126.38296 16753 ft 392 kts 129°
2026-05-04 14:56 37.21794 126.40868 17322 ft 394 kts 129°
2026-05-04 14:56 37.19800 126.43275 17802 ft 401 kts 141°
2026-05-04 14:57 37.17430 126.45138 18358 ft 404 kts 154°
2026-05-04 14:57 37.14998 126.46363 18833 ft 407 kts 160°
2026-05-04 14:57 37.12331 126.47603 19315 ft 410 kts 160°
2026-05-04 14:57 37.09653 126.48869 19793 ft 413 kts 160°
2026-05-04 14:58 37.06959 126.50151 20307 ft 415 kts 160°
2026-05-04 14:58 37.04282 126.51416 20763 ft 418 kts 162°
2026-05-04 14:58 37.01488 126.52429 21204 ft 420 kts 167°
2026-05-04 14:58 36.99605 126.53039 21503 ft 421 kts 167°
2026-05-04 14:59 36.95802 126.54285 22118 ft 424 kts 167°
2026-05-04 14:59 36.92937 126.55228 22549 ft 427 kts 168°
2026-05-04 14:59 36.87167 126.57130 23433 ft 431 kts 168°
2026-05-04 15:00 36.84264 126.58086 23838 ft 434 kts 168°
2026-05-04 15:00 36.81334 126.59051 24284 ft 435 kts 169°
2026-05-04 15:00 36.78397 126.60017 24684 ft 438 kts 169°
2026-05-04 15:01 36.72480 126.61959 25578 ft 442 kts 169°
2026-05-04 15:01 36.69507 126.62953 26026 ft 443 kts 169°
2026-05-04 15:01 36.67528 126.63620 26342 ft 444 kts 169°
2026-05-04 15:01 36.64537 126.64631 26780 ft 447 kts 169°
2026-05-04 15:02 36.61526 126.65646 27249 ft 449 kts 169°
2026-05-04 15:02 36.57520 126.66994 27869 ft 452 kts 169°
2026-05-04 15:02 36.54482 126.68011 28325 ft 453 kts 169°
2026-05-04 15:02 36.52420 126.68702 28618 ft 455 kts 169°
2026-05-04 15:03 36.49349 126.69729 29065 ft 457 kts 169°
2026-05-04 15:03 36.46265 126.70759 29522 ft 459 kts 170°
2026-05-04 15:03 36.43218 126.71776 29948 ft 462 kts 169°
2026-05-04 15:03 36.40105 126.72816 30384 ft 464 kts 170°
2026-05-04 15:04 36.36979 126.73860 30859 ft 466 kts 170°
2026-05-04 15:04 36.33836 126.74919 31276 ft 468 kts 170°
2026-05-04 15:04 36.30687 126.75983 31731 ft 470 kts 171°
2026-05-04 15:04 36.27518 126.77054 32137 ft 472 kts 171°
2026-05-04 15:05 36.24339 126.78125 32524 ft 475 kts 171°
2026-05-04 15:05 36.21145 126.79200 32970 ft 476 kts 171°
2026-05-04 15:05 36.17926 126.80170 33342 ft 474 kts 176°
2026-05-04 15:05 36.14665 126.80705 33725 ft 470 kts 183°
2026-05-04 15:06 36.11416 126.80798 34155 ft 465 kts 189°
2026-05-04 15:06 36.08202 126.80503 34497 ft 464 kts 192°
2026-05-04 15:06 36.04967 126.80127 34824 ft 467 kts 192°
2026-05-04 15:07 35.98472 126.79412 35740 ft 468 kts 192°
2026-05-04 15:07 35.95280 126.79071 36366 ft 463 kts 193°
2026-05-04 15:07 35.92090 126.78731 36892 ft 461 kts 193°
2026-05-04 15:07 35.88892 126.78386 37307 ft 460 kts 193°
2026-05-04 15:08 35.85706 126.78041 37819 ft 458 kts 193°
2026-05-04 15:08 35.82532 126.77694 38022 ft 459 kts 193°
2026-05-04 15:08 35.79385 126.77356 38045 ft 450 kts 193°
2026-05-04 15:09 35.73163 126.76682 38045 ft 450 kts 193°
2026-05-04 15:09 35.66920 126.76004 38044 ft 451 kts 194°
2026-05-04 15:10 35.57441 126.74981 38045 ft 454 kts 193°
2026-05-04 15:11 35.48064 126.73976 38044 ft 454 kts 193°
2026-05-04 15:11 35.41763 126.73302 38043 ft 453 kts 193°
2026-05-04 15:12 35.35496 126.72633 38045 ft 452 kts 193°
2026-05-04 15:12 35.29229 126.71962 38050 ft 451 kts 193°
2026-05-04 15:13 35.22973 126.71295 38055 ft 450 kts 193°
2026-05-04 15:13 35.16718 126.70628 38053 ft 451 kts 193°
2026-05-04 15:14 35.10503 126.69968 38054 ft 450 kts 193°
2026-05-04 15:14 35.04269 126.69307 38056 ft 450 kts 193°
2026-05-04 15:15 34.98034 126.68642 38054 ft 449 kts 193°
2026-05-04 15:15 34.91816 126.67986 38053 ft 448 kts 193°
2026-05-04 15:16 34.82500 126.67002 38054 ft 448 kts 193°
2026-05-04 15:17 34.73227 126.66022 38053 ft 448 kts 193°
2026-05-04 15:17 34.63908 126.65045 38054 ft 447 kts 194°
2026-05-04 15:18 34.57702 126.64391 38053 ft 447 kts 194°
2026-05-04 15:19 34.48446 126.63421 38050 ft 447 kts 194°
2026-05-04 15:19 34.39143 126.62448 38054 ft 447 kts 194°
2026-05-04 15:20 34.32947 126.61803 38053 ft 446 kts 194°
2026-05-04 15:20 34.26749 126.61156 38063 ft 447 kts 194°
2026-05-04 15:21 34.20553 126.60511 38063 ft 447 kts 194°
2026-05-04 15:22 34.11253 126.59543 38070 ft 447 kts 194°
2026-05-04 15:22 34.01954 126.58575 38072 ft 447 kts 194°
2026-05-04 15:23 33.95798 126.57934 38071 ft 445 kts 194°
2026-05-04 15:23 33.89641 126.57300 38073 ft 443 kts 194°
2026-05-04 15:24 33.77935 126.54083 38082 ft 424 kts 208°
2026-05-04 15:25 33.72383 126.51637 38081 ft 425 kts 208°
2026-05-04 15:26 33.64034 126.48019 38081 ft 425 kts 208°
2026-05-04 15:26 33.55687 126.44411 38080 ft 425 kts 208°
2026-05-04 15:27 33.47386 126.40830 38081 ft 424 kts 208°
2026-05-04 15:28 33.39067 126.37246 38081 ft 423 kts 208°
2026-05-04 15:29 33.30748 126.33677 38081 ft 422 kts 208°
2026-05-04 15:30 33.11523 126.25447 38081 ft 418 kts 208°
2026-05-04 15:31 33.03314 126.21943 38085 ft 416 kts 208°
2026-05-04 15:32 32.89774 126.16142 38081 ft 413 kts 209°
2026-05-04 15:34 32.76273 126.10359 38072 ft 411 kts 209°
2026-05-04 15:34 32.68219 126.06919 38072 ft 408 kts 209°
2026-05-04 15:35 32.60196 126.03496 38071 ft 408 kts 210°
2026-05-04 15:36 32.52219 126.00104 38071 ft 407 kts 210°
2026-05-04 15:36 32.46874 125.97834 38063 ft 409 kts 209°
2026-05-04 15:37 32.41521 125.95565 38062 ft 408 kts 209°
2026-05-04 15:37 32.36182 125.93304 38063 ft 407 kts 210°
2026-05-04 15:38 32.30854 125.91052 38063 ft 406 kts 210°
2026-05-04 15:38 32.25564 125.88818 38062 ft 406 kts 210°
2026-05-04 15:39 32.20254 125.86581 38063 ft 406 kts 210°
2026-05-04 15:40 32.12291 125.83230 38054 ft 405 kts 210°
2026-05-04 15:40 32.06982 125.80997 38054 ft 405 kts 210°
2026-05-04 15:41 32.01665 125.78764 38054 ft 405 kts 210°
2026-05-04 15:41 31.96353 125.76533 38053 ft 405 kts 210°
2026-05-04 15:42 31.91057 125.74308 38054 ft 404 kts 210°
2026-05-04 15:42 31.85757 125.72079 38053 ft 404 kts 210°
2026-05-04 15:43 31.80461 125.69858 38053 ft 404 kts 210°
2026-05-04 15:43 31.75172 125.67643 38054 ft 404 kts 210°
2026-05-04 15:44 31.69878 125.65426 38053 ft 404 kts 210°
2026-05-04 15:44 31.64614 125.63220 38054 ft 404 kts 210°
2026-05-04 15:45 31.59328 125.61010 38053 ft 403 kts 210°
2026-05-04 15:45 31.54022 125.58795 38053 ft 405 kts 210°
2026-05-04 15:46 31.48707 125.56573 38044 ft 404 kts 210°
2026-05-04 15:46 31.43421 125.54359 38045 ft 403 kts 210°
2026-05-04 15:47 31.38131 125.52142 38045 ft 404 kts 210°
2026-05-04 15:47 31.32829 125.49931 38045 ft 404 kts 210°
2026-05-04 15:48 31.27536 125.47720 38044 ft 404 kts 210°
2026-05-04 15:48 31.19620 125.44420 38043 ft 405 kts 210°
2026-05-04 15:49 31.14319 125.42213 38044 ft 404 kts 210°
2026-05-04 15:49 31.09020 125.40013 38044 ft 404 kts 210°
2026-05-04 15:50 31.03715 125.37811 38044 ft 404 kts 210°
2026-05-04 15:50 30.98417 125.35617 38044 ft 403 kts 210°
2026-05-04 15:51 30.93128 125.33427 38044 ft 403 kts 210°
2026-05-04 15:51 30.87841 125.31238 38044 ft 403 kts 210°
2026-05-04 15:52 30.83444 125.29421 38045 ft 403 kts 210°
2026-05-04 15:52 30.78165 125.27244 38044 ft 402 kts 210°
2026-05-04 15:53 30.72897 125.25073 38045 ft 402 kts 210°
2026-05-04 15:53 30.67627 125.22904 38044 ft 402 kts 210°
2026-05-04 15:54 30.62355 125.20738 38045 ft 401 kts 210°
2026-05-04 15:54 30.57099 125.18578 38044 ft 401 kts 210°
2026-05-04 15:55 30.51822 125.16412 38045 ft 402 kts 210°
2026-05-04 15:55 30.46554 125.14254 38045 ft 401 kts 210°
2026-05-04 15:56 30.41329 125.12113 38044 ft 401 kts 210°
2026-05-04 15:56 30.36058 125.09955 38044 ft 402 kts 210°
2026-05-04 15:57 30.30797 125.07804 38044 ft 400 kts 210°
2026-05-04 15:57 30.25549 125.05663 38044 ft 400 kts 210°
2026-05-04 15:58 30.20295 125.03521 38044 ft 400 kts 210°
2026-05-04 15:58 30.15040 125.01383 38044 ft 400 kts 210°
2026-05-04 15:59 30.09794 124.99247 38044 ft 400 kts 210°
2026-05-04 15:59 30.04550 124.97115 38044 ft 400 kts 210°
2026-05-04 16:00 29.99299 124.94984 38044 ft 400 kts 211°
2026-05-04 16:00 29.94058 124.92746 38045 ft 403 kts 211°
2026-05-04 16:01 29.88805 124.90486 38044 ft 402 kts 211°
2026-05-04 16:01 29.83589 124.88259 38045 ft 401 kts 211°
2026-05-04 16:02 29.78362 124.86032 38045 ft 401 kts 211°
2026-05-04 16:03 29.70495 124.82687 38044 ft 402 kts 211°
2026-05-04 16:03 29.65253 124.80459 38054 ft 403 kts 211°
2026-05-04 16:04 29.59978 124.78218 38053 ft 404 kts 211°
2026-05-04 16:04 29.52071 124.74868 38053 ft 403 kts 211°
2026-05-04 16:05 29.46808 124.72640 38053 ft 404 kts 211°
2026-05-04 16:06 29.38891 124.69295 38053 ft 404 kts 211°
2026-05-04 16:07 29.28364 124.64853 38044 ft 404 kts 211°
2026-05-04 16:08 29.17744 124.60382 38044 ft 407 kts 211°
2026-05-04 16:09 29.04406 124.54785 38044 ft 409 kts 210°
2026-05-04 16:10 28.94009 124.49754 38024 ft 397 kts 219°
2026-05-04 16:11 28.85008 124.42712 38024 ft 394 kts 223°
2026-05-04 16:12 28.71522 124.31898 38026 ft 397 kts 223°
2026-05-04 16:13 28.62485 124.24672 37998 ft 396 kts 223°
2026-05-04 16:14 28.53441 124.17455 37999 ft 398 kts 223°
2026-05-04 16:16 28.42107 124.08430 38007 ft 399 kts 223°
2026-05-04 16:17 28.30708 123.99375 37998 ft 400 kts 223°
2026-05-04 16:18 28.21671 123.92005 37998 ft 400 kts 224°
2026-05-04 16:19 28.10370 123.82817 37998 ft 400 kts 224°
2026-05-04 16:20 27.99084 123.73671 37999 ft 400 kts 224°
2026-05-04 16:22 27.87741 123.64467 37998 ft 401 kts 224°
2026-05-04 16:23 27.74123 123.53396 37998 ft 402 kts 223°
2026-05-04 16:25 27.60499 123.42363 37989 ft 404 kts 223°
2026-05-04 16:26 27.44476 123.29430 37998 ft 405 kts 223°
2026-05-04 16:28 27.33021 123.20213 37998 ft 406 kts 223°
2026-05-04 16:29 27.16872 123.07258 37989 ft 407 kts 223°
2026-05-04 16:31 27.05321 122.98022 37998 ft 409 kts 223°
2026-05-04 16:32 26.91353 122.86919 37998 ft 411 kts 223°
2026-05-04 16:33 26.82002 122.79499 37988 ft 412 kts 222°
2026-05-04 16:34 26.74965 122.73935 38075 ft 415 kts 222°
2026-05-04 16:35 26.60671 122.62638 38172 ft 422 kts 222°
2026-05-04 16:36 26.53539 122.57019 37623 ft 414 kts 222°
2026-05-04 16:37 26.48836 122.53313 37127 ft 414 kts 222°
2026-05-04 16:37 26.46481 122.51459 36876 ft 414 kts 222°
2026-05-04 16:37 26.41768 122.47752 36377 ft 414 kts 222°
2026-05-04 16:38 26.37056 122.44050 35885 ft 420 kts 221°
2026-05-04 16:39 26.29800 122.38356 35136 ft 427 kts 221°
2026-05-04 16:39 26.24940 122.34553 34639 ft 425 kts 221°
2026-05-04 16:40 26.20135 122.30794 34139 ft 420 kts 221°
2026-05-04 16:40 26.15377 122.27075 33643 ft 416 kts 221°
2026-05-04 16:41 26.10636 122.23396 33142 ft 415 kts 220°
2026-05-04 16:41 26.04321 122.18573 32486 ft 412 kts 219°
2026-05-04 16:42 25.96509 122.12603 31496 ft 408 kts 219°
2026-05-04 16:43 25.92606 122.09617 30593 ft 403 kts 218°
2026-05-04 16:43 25.88034 122.06130 29560 ft 395 kts 218°
2026-05-04 16:43 25.85802 122.04428 29006 ft 392 kts 218°
2026-05-04 16:44 25.76973 121.97706 26870 ft 377 kts 219°
2026-05-04 16:45 25.72687 121.94446 25819 ft 370 kts 219°
2026-05-04 16:46 25.66492 121.89604 24301 ft 355 kts 224°
2026-05-04 16:46 25.63229 121.85694 23345 ft 342 kts 238°
2026-05-04 16:47 25.60857 121.81209 22350 ft 335 kts 243°
2026-05-04 16:47 25.58569 121.76747 21368 ft 330 kts 242°
2026-05-04 16:48 25.55193 121.70183 19917 ft 324 kts 242°
2026-05-04 16:48 25.54085 121.68025 19440 ft 322 kts 242°
2026-05-04 16:49 25.51881 121.63744 18499 ft 317 kts 242°
2026-05-04 16:49 25.49722 121.59549 17588 ft 313 kts 242°
2026-05-04 16:50 25.47226 121.55637 16696 ft 311 kts 232°
2026-05-04 16:50 25.44400 121.52051 15801 ft 309 kts 233°
2026-05-04 16:51 25.41597 121.48471 14924 ft 306 kts 232°
2026-05-04 16:51 25.40211 121.46692 14493 ft 303 kts 233°
2026-05-04 16:51 25.37463 121.43162 13643 ft 301 kts 232°
2026-05-04 16:52 25.34735 121.39680 12829 ft 298 kts 232°
2026-05-04 16:52 25.33384 121.37957 12428 ft 295 kts 232°
2026-05-04 16:53 25.30702 121.34533 11605 ft 294 kts 232°
2026-05-04 16:53 25.26641 121.29346 10366 ft 296 kts 231°
2026-05-04 16:54 25.25313 121.27656 10178 ft 287 kts 231°
2026-05-04 16:55 25.20078 121.20996 9404 ft 291 kts 230°
2026-05-04 16:55 25.17425 121.17623 8863 ft 292 kts 230°
2026-05-04 16:56 25.14779 121.14262 8303 ft 286 kts 229°
2026-05-04 16:56 25.10956 121.09407 7485 ft 273 kts 229°
2026-05-04 16:57 25.09720 121.07837 7230 ft 269 kts 229°
2026-05-04 16:57 25.07288 121.04748 6539 ft 269 kts 229°
2026-05-04 16:58 25.03472 120.99906 5905 ft 288 kts 229°
2026-05-04 16:58 25.02153 120.98229 5615 ft 288 kts 229°
2026-05-04 16:59 24.99615 120.95013 4983 ft 274 kts 228°
2026-05-04 17:00 24.93780 120.89975 4033 ft 276 kts 178°
2026-05-04 17:00 24.89816 120.93541 3037 ft 258 kts 96°
2026-05-04 17:01 24.90979 120.97082 2577 ft 252 kts 47°
2026-05-04 17:01 24.93084 120.99971 2298 ft 232 kts 64°
2026-05-04 17:02 24.94029 121.03188 2229 ft 207 kts 79°
2026-05-04 17:02 24.94421 121.06020 2508 ft 179 kts 82°
2026-05-04 17:03 24.94704 121.07362 2503 ft 180 kts 68°
2026-05-04 17:03 24.95325 121.08561 2504 ft 181 kts 56°
2026-05-04 17:03 24.96855 121.10597 2503 ft 168 kts 51°
2026-05-04 17:04 24.98343 121.12493 2435 ft 150 kts 51°
2026-05-04 17:04 24.99629 121.14131 2057 ft 137 kts 52°
2026-05-04 17:05 25.00875 121.15719 1700 ft 137 kts 52°
2026-05-04 17:05 25.02116 121.17288 1347 ft 136 kts 52°
2026-05-04 17:06 25.03327 121.18869 965 ft 135 kts 49°
2026-05-04 17:06 25.03970 121.19621 814 ft 136 kts 59°
2026-05-04 17:07 25.05182 121.21234 464 ft 136 kts 49°
2026-05-04 17:07 25.05601 121.21751 356 ft 137 kts 49°
2026-05-04 17:07 25.06436 121.22821 94 ft 134 kts 41°
2026-05-04 17:07 25.06938 121.23434 97 ft 71 kts 49°
2026-05-04 17:08 25.07126 121.23647 94 ft 28 kts 34°
2026-05-04 17:08 25.07341 121.23750 93 ft 10 kts 19°
2026-05-04 17:08 25.07408 121.23776 92 ft 7 kts 20°
2026-05-04 17:09 25.07420 121.23781 93 ft 4 kts 17°
2026-05-04 17:09 25.07462 121.23787 88 ft 8 kts 354°
2026-05-04 17:09 25.07523 121.23758 88 ft 11 kts 324°
2026-05-04 17:10 25.07655 121.23711 88 ft 10 kts 36°
2026-05-04 17:10 25.07762 121.23686 88 ft 1 kts 319°
2026-05-04 17:11 25.07772 121.23677 88 ft 4 kts 318°
2026-05-04 17:11 25.07774 121.23675 88 ft 0 kts 318°